Date String (YYYY-MM-DD hh:mm:ss) UTC,Instrument flags,Ambient pressure (hPa),Sample flow (lpm),Bypass flow (lpm),Sample temperature (°C),Ambient temperature (°C),ASC tube jacket temperature (°C),LED temperature (°C),Box temperature (°C),Sample RH (%),Span deviation,Mass concentration (μg/m³),Mass concentration (μg/m³),Mass concentration (μg/m³)
DateTimeUTC,F1_M11,P_M11,Q1_M11,Q2_M11,T1_M11,T2_M11,T3_M11,T4_M11,T5_M11,U1_M11,ZSPAN_M11,X0_M11,X2_M11,X1_M11
2023-01-18 18:00:00,,0816.0,5.00,0.00,23.0,21.4,00.0,31.8,24.6,14.3,0000.0,0004.26,0000.84,0000.65
2023-01-18 18:01:00,,0816.0,5.02,0.00,23.0,22.0,00.0,31.8,24.8,14.3,0000.0,0004.22,0000.82,0000.61
2023-01-18 18:02:00,,0816.0,5.01,0.00,23.1,23.1,00.0,31.8,25.0,14.3,0000.0,0004.03,0000.78,0000.57
2023-01-18 18:03:00,,0815.9,5.00,0.00,23.2,23.3,00.0,31.8,25.1,14.2,0000.0,0003.65,0000.73,0000.54
2023-01-18 18:04:00,,0815.9,4.99,0.00,23.2,22.8,00.0,31.8,25.0,14.2,0000.0,0003.28,0000.68,0000.50
2023-01-18 18:05:00,,0816.0,5.02,0.00,23.2,22.3,00.0,31.9,24.9,14.2,0000.0,0001.97,0000.63,0000.46
2023-01-18 18:06:00,,0815.9,5.00,0.00,23.1,22.0,00.0,31.9,24.8,14.3,0000.0,0001.88,0000.64,0000.45
2023-01-18 18:07:00,,0815.9,5.00,0.00,23.1,21.7,00.0,31.9,24.8,14.3,0000.0,0002.59,0000.66,0000.45
2023-01-18 18:08:00,,0815.9,5.01,0.00,23.1,21.5,00.0,31.9,24.7,14.4,0000.0,0002.69,0000.68,0000.44
2023-01-18 18:09:00,,0815.9,4.99,0.00,23.0,21.3,00.0,31.8,24.6,14.4,0000.0,0002.94,0000.69,0000.45
2023-01-18 18:10:00,,0815.9,5.01,0.00,23.0,21.9,00.0,31.8,24.8,14.4,0000.0,0002.96,0000.71,0000.46
2023-01-18 18:11:00,,0815.9,5.00,0.00,23.1,23.0,00.0,31.8,25.0,14.3,0000.0,0002.58,0000.69,0000.48
2023-01-18 18:12:00,,0815.9,5.00,0.00,23.2,23.3,00.0,31.9,25.1,14.3,0000.0,0002.57,0000.69,0000.49
2023-01-18 18:13:00,,0815.9,4.99,0.00,23.2,22.7,00.0,31.9,25.0,14.3,0000.0,0002.57,0000.68,0000.51
2023-01-18 18:14:00,,0815.8,5.00,0.00,23.2,22.3,00.0,31.9,24.9,14.3,0000.0,0002.53,0000.70,0000.52
2023-01-18 18:15:00,,0815.9,5.00,0.00,23.2,21.9,00.0,31.9,24.8,14.3,0000.0,0002.55,0000.72,0000.53
2023-01-18 18:16:00,,0815.9,5.00,0.00,23.1,21.6,00.0,31.9,24.8,14.4,0000.0,0002.54,0000.73,0000.54
2023-01-18 18:17:00,,0815.9,5.01,0.00,23.1,21.4,00.0,31.9,24.7,14.4,0000.0,0002.57,0000.75,0000.56
2023-01-18 18:18:00,,0815.9,5.01,0.00,23.1,21.4,00.0,31.9,24.7,14.4,0000.0,0002.24,0000.75,0000.58
2023-01-18 18:19:00,,0816.0,5.02,0.00,23.1,22.5,00.0,31.8,24.9,14.4,0000.0,0002.59,0000.77,0000.59
2023-01-18 18:20:00,,0815.9,5.00,0.00,23.2,23.4,00.0,31.9,25.1,14.4,0000.0,0003.12,0000.79,0000.60
2023-01-18 18:21:00,,0815.9,4.99,0.00,23.3,23.2,00.0,31.9,25.1,14.3,0000.0,0005.22,0000.80,0000.60
2023-01-18 18:22:00,,0816.0,5.00,0.00,23.3,22.7,00.0,31.9,25.0,14.3,0000.0,0005.34,0000.80,0000.60
2023-01-18 18:23:00,,0815.9,5.00,0.00,23.3,22.3,00.0,31.9,25.0,14.4,0000.0,0005.36,0000.82,0000.62
2023-01-18 18:24:00,,0815.9,5.01,0.00,23.2,22.0,00.0,31.9,24.9,14.4,0000.0,0005.48,0000.87,0000.64
2023-01-18 18:25:00,,0816.0,5.01,0.00,23.2,21.8,00.0,31.9,24.9,14.5,0000.0,0005.51,0000.88,0000.65
2023-01-18 18:26:00,,0815.9,5.00,0.00,23.2,21.6,00.0,31.9,24.8,14.5,0000.0,0006.06,0000.88,0000.65
2023-01-18 18:27:00,,0815.9,5.00,0.00,23.1,21.5,00.0,31.9,24.8,14.6,0000.0,0006.81,0000.88,0000.65
2023-01-18 18:28:00,,0815.9,4.99,0.00,23.1,21.3,00.0,31.9,24.7,14.6,0000.0,0006.79,0000.88,0000.66
2023-01-18 18:29:00,,0815.9,4.99,0.00,23.1,21.2,00.0,31.9,24.6,14.6,0000.0,0006.73,0000.92,0000.67
2023-01-18 18:30:00,,0815.9,4.99,0.00,23.0,21.1,00.0,31.9,24.6,14.7,0000.0,0005.76,0000.89,0000.67
2023-01-18 18:31:00,,0815.9,5.00,0.00,23.0,21.1,00.0,31.9,24.6,14.7,0000.0,0004.83,0000.88,0000.68
2023-01-18 18:32:00,,0816.0,5.01,0.00,23.0,21.9,00.0,31.8,24.7,14.7,0000.0,0002.87,0000.90,0000.69
2023-01-18 18:33:00,,0815.9,5.01,0.00,23.1,23.0,00.0,31.8,25.0,14.7,0000.0,0002.82,0000.90,0000.70
2023-01-18 18:34:00,,0815.9,5.00,0.00,23.2,23.1,00.0,31.9,25.0,14.6,0000.0,0002.82,0000.90,0000.70
2023-01-18 18:35:00,,0816.0,5.00,0.00,23.2,22.6,00.0,31.9,25.0,14.6,0000.0,0002.80,0000.89,0000.69
2023-01-18 18:36:00,,0815.9,5.01,0.00,23.2,22.2,00.0,31.9,24.9,14.6,0000.0,0002.88,0000.94,0000.71
2023-01-18 18:37:00,,0815.9,5.01,0.00,23.2,21.9,00.0,31.9,24.8,14.7,0000.0,0002.86,0000.99,0000.73
2023-01-18 18:38:00,,0815.9,4.99,0.00,23.1,21.7,00.0,31.9,24.7,14.7,0000.0,0001.85,0001.02,0000.77
2023-01-18 18:39:00,,0815.9,4.98,0.00,23.1,21.5,00.0,31.9,24.7,14.7,0000.0,0002.30,0001.01,0000.78
2023-01-18 18:40:00,,0815.8,5.00,0.00,23.1,21.3,00.0,31.9,24.6,14.7,0000.0,0002.66,0001.00,0000.79
2023-01-18 18:41:00,,0815.8,5.00,0.00,23.0,21.2,00.0,31.9,24.6,14.7,0000.0,0003.35,0001.02,0000.81
2023-01-18 18:42:00,,0815.8,5.00,0.00,23.0,21.3,00.0,31.8,24.6,14.7,0000.0,0003.78,0001.05,0000.83
2023-01-18 18:43:00,,0815.9,5.00,0.00,23.1,22.4,00.0,31.8,24.8,14.7,0000.0,0003.87,0001.08,0000.84
2023-01-18 18:44:00,,0815.9,5.01,0.00,23.2,23.3,00.0,31.8,25.0,14.6,0000.0,0003.87,0001.10,0000.86
2023-01-18 18:45:00,,0815.8,4.98,0.00,23.2,23.1,00.0,31.9,25.0,14.6,0000.0,0003.95,0001.12,0000.87
2023-01-18 18:46:00,,0815.8,5.00,0.00,23.2,22.6,00.0,31.9,24.9,14.6,0000.0,0003.89,0001.09,0000.87
2023-01-18 18:47:00,,0815.8,5.01,0.00,23.2,22.2,00.0,31.9,24.9,14.5,0000.0,0003.84,0001.06,0000.88
2023-01-18 18:48:00,,0815.8,5.00,0.00,23.2,21.8,00.0,31.9,24.8,14.5,0000.0,0003.59,0001.01,0000.87
2023-01-18 18:49:00,,0815.8,4.98,0.00,23.1,21.6,00.0,31.9,24.7,14.6,0000.0,0003.66,0001.05,0000.88
2023-01-18 18:50:00,,0815.8,5.01,0.00,23.1,21.4,00.0,31.9,24.7,14.6,0000.0,0003.23,0001.06,0000.88
2023-01-18 18:51:00,,0815.8,5.00,0.00,23.1,21.3,00.0,31.9,24.6,14.6,0000.0,0002.76,0001.05,0000.88
2023-01-18 18:52:00,,0815.8,5.00,0.00,23.0,21.2,00.0,31.9,24.6,14.7,0000.0,0002.09,0001.05,0000.89
2023-01-18 18:53:00,,0815.8,5.00,0.00,23.0,21.1,00.0,31.8,24.6,14.7,0000.0,0001.80,0001.06,0000.89
2023-01-18 18:54:00,,0815.8,5.00,0.00,23.0,21.6,00.0,31.8,24.7,14.7,0000.0,0001.71,0001.04,0000.90
2023-01-18 18:55:00,,0815.8,4.99,0.00,23.1,22.6,00.0,31.8,24.9,14.7,0000.0,0001.90,0001.04,0000.90
2023-01-18 18:56:00,,0815.8,4.99,0.00,23.2,23.3,00.0,31.8,25.1,14.6,0000.0,0001.81,0001.04,0000.90
2023-01-18 18:57:00,,0815.8,4.98,0.00,23.2,23.0,00.0,31.9,25.1,14.5,0000.0,0001.84,0001.07,0000.91
2023-01-18 18:58:00,,0815.8,5.00,0.00,23.2,22.5,00.0,31.9,25.0,14.5,0000.0,0001.73,0001.06,0000.91
2023-01-18 18:59:00,,0815.8,4.99,0.00,23.2,22.2,00.0,31.9,24.9,14.5,0000.0,0001.72,0001.06,0000.92
